Tracking 35274 objects as of 10-Sep-2026
HD Live streaming from Space Station
objects crossing your sky now

STARLINK-30262


STARLINK-30262 is no longer on orbit
STARLINK-30262 is classified as:


NORAD ID: 57535
Int'l Code: 2023-115Q
Launch date: August 8, 2023
Source: United States (US)
Launch site: AIR FORCE WESTERN TEST RANGE (AFWTR)
Decay date: 2025-07-23
Your satellite tracking list
Your tracking list is empty




NASA's NSSDC Master Catalog

Two Line Element Set (TLE):
1 57535U 23115Q   25204.45895414  .44093982  92364-5  48326-2 0  9993
2 57535  42.9766 343.4976 0005643 281.3965 138.4460 16.36224002111037
Source of the keplerian elements: AFSPC